EW7304 Weather Reports


time (UTC)temp
C
wind
direction
speed
KPH
gust
KPH
rain 1hr
cm
rain 24hr
cm
rain mn
cm
humidity
%
barometer
mb
20260510120033 23 217 0.0 3.2 0.00 0.15 0.00 95 1012.5
20260510114531 23 153 0.0 0.0 0.00 0.15 0.00 95 1012.2
20260510113028 23 153 0.0 0.0 0.00 0.15 0.00 95 1011.9
20260510111528 23 146 0.0 0.0 0.00 0.15 0.00 95 1011.8
20260510110034 23 146 0.0 1.6 0.00 0.15 0.00 95 1011.5
20260510104526 23 289 0.0 3.2 0.00 0.15 0.00 95 1011.3
20260510103024 23 208 0.0 4.8 0.00 0.15 0.00 95 1011.2
20260510101524 23 168 0.0 1.6 0.00 0.15 0.00 96 1011.1
20260510100024 23 214 0.0 3.2 0.00 0.15 0.00 96 1011.0
20260510094541 23 205 0.0 3.2 0.00 0.15 0.00 96 1011.1
20260510093022 23 210 0.0 3.2 0.00 0.15 0.00 96 1011.0
20260510091525 23 221 0.0 1.6 0.00 0.15 0.00 97 1011.2
20260510090025 23 212 0.0 0.0 0.00 0.15 0.00 96 1011.1
20260510084524 23 217 0.0 3.2 0.00 0.15 0.00 97 1011.1
20260510083021 23 207 0.0 1.6 0.00 0.15 0.00 97 1011.0
20260510081522 23 221 0.0 0.0 0.00 0.15 0.00 96 1011.1
20260510080019 23 221 0.0 0.0 0.00 0.15 0.00 96 1011.0
20260510074519 23 221 0.0 0.0 0.00 0.15 0.00 96 1010.9
20260510073019 23 221 0.0 1.6 0.00 0.15 0.00 95 1010.9
20260510071516 23 212 0.0 1.6 0.00 0.15 0.00 95 1010.8
20260510070022 23 236 0.0 3.2 0.00 0.15 0.00 95 1011.0
20260510064514 23 259 0.0 6.4 0.00 0.15 0.00 94 1011.0
20260510063013 23 214 0.0 1.6 0.00 0.15 0.00 94 1011.0
20260510061511 23 115 0.0 4.8 0.00 0.15 0.00 94 1011.2
20260510060010 23 60 0.0 0.0 0.00 0.15 0.00 95 1011.3
20260510054506 23 60 0.0 1.6 0.00 0.15 0.00 95 1011.3
20260510053019 23 59 0.0 3.2 0.00 0.15 0.00 95 1011.4
20260510051503 23 83 0.0 4.8 0.00 0.15 0.00 94 1011.5
20260510050004 24 75 0.0 12.9 0.03 0.15 0.00 94 1011.7
20260510044600 24 44 1.6 11.3 0.03 0.15 0.15 95 1011.9
20260510043104 24 81 1.6 8.0 0.03 0.15 0.15 95 1012.1
20260510041557 24 73 1.6 6.4 0.03 0.15 0.15 96 1012.1
20260510040057 24 58 0.0 4.8 0.08 0.13 0.13 95 1012.2
20260510034557 24 77 0.0 4.8 0.13 0.13 0.13 95 1012.0
20260510033155 25 75 0.0 1.6 0.13 0.13 0.13 95 1011.6
20260510031555 25 91 0.0 8.0 0.13 0.13 0.13 94 1012.1
20260510030053 25 92 0.0 8.0 0.05 0.05 0.05 92 1012.2
20260510024552 25 74 1.6 9.7 0.00 0.00 0.00 91 1011.7
20260510023048 25 85 1.6 8.0 0.00 0.00 0.00 89 1011.3
20260510021550 26 49 0.0 8.0 0.00 0.00 0.00 88 1011.0
20260510020044 26 82 1.6 8.0 0.00 0.00 0.00 83 1010.6
20260510014544 26 86 0.0 8.0 0.00 0.00 0.00 78 1010.1
20260510013049 27 77 1.6 4.8 0.00 0.00 0.00 77 1009.7
20260510011545 27 152 0.0 3.2 0.00 0.00 0.00 74 1009.3
20260510010041 28 113 0.0 8.0 0.00 0.00 0.00 72 1008.8
20260510004544 28 174 0.0 1.6 0.00 0.00 0.00 66 1008.7
20260510003041 28 190 0.0 4.8 0.00 0.00 0.00 64 1008.7
20260510001542 29 70 0.0 6.4 0.00 0.00 0.00 66 1008.5
20260510000047 29 83 0.0 6.4 0.00 0.00 0.00 67 1008.4
20260509234538 30 66 0.0 6.4 0.00 0.00 0.00 68 1008.2
20260509233037 30 92 0.0 6.4 0.00 0.00 0.00 71 1008.1
20260509231539 30 79 0.0 4.8 0.00 0.00 0.00 72 1008.2
20260509230036 31 77 1.6 6.4 0.00 0.00 0.00 71 1008.2
20260509224535 30 82 0.0 9.7 0.00 0.00 0.00 75 1007.9
20260509223035 30 71 3.2 6.4 0.00 0.00 0.00 74 1008.0
20260509221536 31 99 1.6 8.0 0.00 0.00 0.00 73 1007.8
20260509220034 31 62 0.0 4.8 0.00 0.00 0.00 70 1007.8
20260509214534 31 83 0.0 3.2 0.00 0.00 0.00 66 1007.8
20260509213034 32 58 0.0 4.8 0.00 0.00 0.00 59 1007.8
20260509211530 32 253 0.0 4.8 0.00 0.00 0.00 59 1007.8
20260509210033 32 255 1.6 6.4 0.00 0.00 0.00 58 1007.9
20260509204527 32 283 1.6 6.4 0.00 0.00 0.00 58 1008.0
20260509203026 31 68 0.0 0.0 0.00 0.00 0.00 61 1008.1
20260509201523 31 342 0.0 3.2 0.00 0.00 0.00 62 1008.3
20260509200019 31 352 1.6 4.8 0.00 0.00 0.00 64 1008.6
20260509194519 31 230 0.0 4.8 0.00 0.00 0.00 64 1008.6
20260509193026 31 86 0.0 6.4 0.00 0.00 0.00 63 1008.6
20260509191520 31 309 1.6 4.8 0.00 0.00 0.00 63 1008.8
20260509190015 31 70 0.0 4.8 0.00 0.00 0.00 69 1008.9
20260509184527 30 322 1.6 4.8 0.00 0.00 0.00 68 1008.9
20260509183007 29 260 1.6 6.4 0.00 0.00 0.00 73 1009.3
20260509181503 29 209 0.0 6.4 0.00 0.00 0.00 76 1009.6
20260509180106 28 254 0.0 6.4 0.00 0.00 0.00 78 1009.9
20260509174620 28 253 1.6 8.0 0.00 0.00 0.00 82 1010.4
20260509173059 27 252 1.6 6.4 0.00 0.00 0.00 82 1010.5
20260509171557 27 274 0.0 8.0 0.00 0.00 0.00 84 1010.5
20260509170100 27 198 0.0 3.2 0.00 0.00 0.00 84 1010.6
20260509164554 27 220 0.0 6.4 0.00 0.03 0.00 84 1010.7
20260509163056 27 225 0.0 1.6 0.00 0.03 0.00 84 1010.6
20260509161550 27 288 0.0 3.2 0.00 0.03 0.00 85 1010.5
20260509160047 27 212 0.0 4.8 0.00 0.03 0.00 86 1010.5
20260509154544 26 291 0.0 1.6 0.00 0.03 0.00 88 1010.7
20260509153052 26 150 0.0 4.8 0.00 0.03 0.00 90 1009.9
20260509151538 25 86 0.0 0.0 0.00 0.03 0.00 92 1010.2
20260509150036 25 53 0.0 3.2 0.00 0.03 0.00 92 1009.7
20260509144536 25 50 0.0 1.6 0.00 0.03 0.00 92 1010.3
20260509143035 25 181 0.0 3.2 0.00 0.03 0.00 93 1010.5
20260509141534 25 206 0.0 1.6 0.00 0.03 0.00 93 1010.2
20260509140031 25 278 1.6 4.8 0.00 0.03 0.00 96 1010.3
20260509134528 24 242 0.0 0.0 0.00 0.03 0.00 97 1010.3
20260509133028 24 239 0.0 0.0 0.00 0.03 0.00 98 1010.3
20260509131526 23 269 0.0 3.2 0.00 0.03 0.00 98 1010.6
20260509130032 23 252 0.0 4.8 0.00 0.03 0.00 98 1010.3
20260509124524 23 77 0.0 0.0 0.00 0.03 0.00 98 1010.4
20260509123024 23 76 0.0 0.0 0.00 0.03 0.00 98 1010.5
20260509121526 23 76 0.0 0.0 0.00 0.03 0.00 98 1010.2